Location: �perlecques
(50.8057°N, 2.1521°E)
Time: 17:47:35
(UTC+00:00)

KKS-1 - Pass Details

Date: 08 April 2023
Orbit: 633 x 644 km, 98.2° (Epoch: 03 June)

Event Time Altitude Azimuth Distance (km) Brightness Sun altitude
Rises 23:23:59 0° 8° (N) 2,945 ? -31.5°
Reaches altitude 10° 23:26:19 10° 360° (N) 2,032 ? -31.5°
Enters shadow 23:29:11 30° 327° (NNW) 1,138 ? -31.6°
